ASIASAT 8 (AMOS-7)

Last updated on Thu Oct 30 2025 00:02:49 GMT+0000 (Coordinated Universal Time)

1 40107U 14046A 25302.42063743 -.00000323 00000+0 00000+0 0 9995 2 40107 0.0537 81.1320 0001292 135.6670 77.9549 1.00274091 99830
UTC large
Height (km)
Speed (km/s)
/
Latitude / Longitude
Inclination (degrees)
Orbital Period (minutes)
Azimuth
Elevation
Range (km)
Doppler Factor

Next 0 passes for location: London (51.5072 / 0.1276)

Sorry there are no passes over London.